Weather History for Whidbey Island, WA

Change the Weather History Date:

Wednesday, December 12, 2012

  Actual Average Record
Temperature  
Mean Temperature 42 °F -  
Max Temperature 44 °F 45 °F 61 °F (1999)
Min Temperature 39 °F 36 °F 23 °F (2000)
Degree Days  
Heating Degree Days 24    
Moisture  
Dew Point 39 °F    
Average Humidity 89    
Maximum Humidity 93    
Minimum Humidity 85    
Precipitation  
Precipitation 0.15 in - - ()
Sea Level Pressure  
Sea Level Pressure 29.83 in    
Wind  
Wind Speed 4 mph (ENE)    
Max Wind Speed 12 mph    
Max Gust Speed -    
Visibility 8 miles    
Events Rain    
Averages and records for this station are not official NWS values.
T = Trace of Precipitation, MM = Missing Value Source: NWS Daily Summary

Daily Weather History Graph

Daily Weather History Graph

Search for Another Location

Airport:

Trip Planner

Search our weather history database for the weather conditions in past years. The results will help you decide how hot, cold, wet, or windy it might be!

Date:

Astronomy

Dec. 12, 2012 Rise Set
Actual Time 7:53 AM PST 4:15 PM PST
Civil Twilight 7:16 AM PST 4:52 PM PST
Nautical Twilight 6:36 AM PST 5:32 PM PST
Astronomical Twilight 5:58 AM PST 6:10 PM PST
Moon 7:02 AM PST (12/12) 4:00 PM PST (12/12)
Length of Visible Light 9h 35m
Length of Day
8h 22m
Waning Crescent, 0% of the Moon is Illuminated
Dec 12
Waning Crescent
Dec 13
New
Dec 19
First Quarter
Dec 28
Full
Jan 4
Last Quarter

Hourly Weather History & Observations

Time (PST) Temp. Windchill Dew Point Humidity Pressure Visibility Wind Dir Wind Speed Gust Speed Precip Events Conditions
12:56 AM 43.0 °F 39.5 °F 39.9 °F 89% 29.62 in 8.0 mi Variable 5.8 mph - 0.00 in   Overcast
1:19 AM 42.8 °F 40.1 °F 39.2 °F 87% 29.61 in 7.0 mi ESE 4.6 mph - 0.00 in Rain Light Rain
1:56 AM 43.0 °F - 39.9 °F 89% 29.64 in 6.0 mi Calm Calm - 0.01 in Rain Light Rain
2:31 AM 44.6 °F 40.2 °F 41.0 °F 87% 29.64 in 4.0 mi NNW 8.1 mph - 0.08 in Rain Light Rain
2:56 AM 43.0 °F 38.8 °F 39.9 °F 89% 29.66 in 4.0 mi North 6.9 mph - 0.13 in Rain Light Rain
3:56 AM 42.1 °F - 39.0 °F 89% 29.68 in 10.0 mi Calm Calm - 0.01 in Rain Light Rain
4:28 AM 42.8 °F - 39.2 °F 87% 29.67 in 10.0 mi Calm Calm - 0.00 in   Overcast
4:56 AM 42.1 °F - 39.0 °F 89% 29.69 in 7.0 mi Calm Calm - 0.00 in   Overcast
5:56 AM 43.0 °F 36.8 °F 39.9 °F 89% 29.71 in 7.0 mi NW 11.5 mph - N/A   Overcast
6:27 AM 42.8 °F 37.0 °F 39.2 °F 87% 29.71 in 8.0 mi NNW 10.4 mph - 0.00 in Rain Light Rain
6:56 AM 42.1 °F 39.2 °F 39.0 °F 89% 29.74 in 8.0 mi NNE 4.6 mph - 0.00 in Rain Light Rain
7:03 AM 42.8 °F 40.1 °F 39.2 °F 87% 29.73 in 10.0 mi North 4.6 mph - 0.00 in Rain Light Rain
7:37 AM 42.8 °F 39.3 °F 39.2 °F 87% 29.74 in 8.0 mi North 5.8 mph - 0.00 in Rain Light Rain
7:56 AM 42.1 °F 37.7 °F 39.0 °F 89% 29.76 in 8.0 mi North 6.9 mph - 0.00 in Rain Light Rain
8:24 AM 42.8 °F 40.1 °F 39.2 °F 87% 29.76 in 8.0 mi ENE 4.6 mph - 0.00 in   Overcast
8:56 AM 41.0 °F 39.0 °F 37.9 °F 89% 29.80 in 4.0 mi East 3.5 mph - 0.00 in Rain Light Rain
9:22 AM 41.0 °F 38.0 °F 37.4 °F 87% 29.80 in 6.0 mi ENE 4.6 mph - 0.00 in   Overcast
9:56 AM 42.1 °F 38.4 °F 39.0 °F 89% 29.83 in 7.0 mi East 5.8 mph - 0.00 in   Overcast
10:56 AM 42.1 °F 38.4 °F 39.0 °F 89% 29.86 in 8.0 mi East 5.8 mph - N/A   Overcast
11:22 AM 42.8 °F - 39.2 °F 87% 29.85 in 7.0 mi Calm Calm - 0.00 in Rain Light Rain
11:56 AM 42.1 °F 40.2 °F 39.0 °F 89% 29.87 in 7.0 mi East 3.5 mph - 0.00 in Rain Light Rain
12:44 PM 42.8 °F - 39.2 °F 87% 29.86 in 8.0 mi Calm Calm - 0.00 in   Overcast
12:56 PM 42.1 °F 40.2 °F 39.0 °F 89% 29.88 in 8.0 mi ESE 3.5 mph - 0.00 in   Overcast
1:56 PM 43.0 °F 41.3 °F 39.9 °F 89% 29.90 in 9.0 mi SE 3.5 mph - N/A   Overcast
2:56 PM 43.0 °F 41.3 °F 39.9 °F 89% 29.91 in 10.0 mi SE 3.5 mph - N/A   Mostly Cloudy
3:56 PM 41.0 °F - 37.9 °F 89% 29.94 in 10.0 mi Calm Calm - N/A   Mostly Cloudy
4:04 PM 39.2 °F - 37.4 °F 93% 29.93 in 6.0 mi Calm Calm - N/A Rain Light Rain
4:56 PM 39.9 °F - 37.0 °F 89% 29.96 in 10.0 mi Calm Calm - 0.00 in   Overcast
5:56 PM 39.9 °F 37.8 °F 37.9 °F 93% 29.96 in 10.0 mi ESE 3.5 mph - N/A   Overcast
6:56 PM 42.1 °F - 37.9 °F 85% 29.99 in 10.0 mi Calm Calm - N/A   Overcast
7:56 PM 39.9 °F - 37.9 °F 93% 30.00 in 10.0 mi Calm Calm - N/A   Overcast
8:56 PM 41.0 °F 39.0 °F 37.9 °F 89% 30.01 in 10.0 mi ESE 3.5 mph - N/A   Overcast
9:56 PM 41.0 °F - 37.9 °F 89% 30.03 in 10.0 mi Calm Calm - N/A   Overcast
10:56 PM 41.0 °F 38.0 °F 37.9 °F 89% 30.04 in 8.0 mi East 4.6 mph - N/A   Overcast
11:45 PM 41.0 °F 38.0 °F 37.4 °F 87% 30.04 in 10.0 mi ESE 4.6 mph - 0.00 in Rain Light Rain
11:56 PM 41.0 °F 38.0 °F 37.9 °F 89% 30.05 in 9.0 mi ESE 4.6 mph - 0.00 in Rain Light Rain